FW4199 Weather Reports


time (UTC)temp
F
wind
direction
speed
knots
gust
knots
rain 1hr
in
rain 24hr
in
rain mn
in
humidity
%
barometer
mb
20210302012805 31 337 11.3 33.0 0.00 0.48 0.48 61 999.1
20210302011529 31 0 10.4 26.1 0.00 0.48 0.48 64 999.1
20210302010520 32 315 8.7 29.5 0.00 0.48 0.48 64 999.0
20210302005530 32 315 13.0 29.5 0.00 0.48 0.48 64 998.8
20210302004528 32 315 11.3 28.7 0.00 0.48 0.48 62 998.8
20210302003654 32 315 13.0 33.0 0.00 0.48 0.48 66 999.0
20210302002612 33 337 10.4 26.9 0.00 0.48 0.48 69 998.8
20210302001521 33 337 13.0 41.7 0.00 0.48 0.48 67 998.8
20210302000554 34 337 13.9 37.4 0.00 0.48 0.48 69 999.0
20210301235530 34 0 8.7 21.7 0.00 0.48 0.48 72 998.9
20210301234526 34 315 12.2 31.3 0.00 0.48 0.48 72 998.9
20210301233533 34 337 8.7 19.1 0.00 0.48 0.48 72 998.7
20210301232715 35 337 11.3 34.8 0.00 0.48 0.48 73 998.5
20210301231527 35 315 7.0 17.4 0.00 0.48 0.48 75 998.5
20210301230530 35 337 11.3 28.7 0.00 0.48 0.48 74 998.3
20210301225525 36 337 12.2 34.8 0.00 0.48 0.48 73 998.0
20210301224529 36 315 12.2 31.3 0.00 0.48 0.48 75 998.0
20210301223522 36 315 11.3 40.8 0.00 0.48 0.48 76 997.5
20210301222633 37 337 12.2 28.7 0.00 0.48 0.48 76 996.9
20210301221525 37 315 7.8 20.0 0.00 0.48 0.48 79 997.0
20210301220524 38 315 9.6 23.5 0.00 0.48 0.48 79 996.5
20210301215525 38 315 10.4 23.5 0.00 0.48 0.48 80 996.3
20210301214555 38 315 9.6 20.9 0.00 0.48 0.48 82 996.3
20210301213716 39 337 11.3 35.6 0.00 0.48 0.48 85 995.6
20210301212733 39 315 8.7 23.5 0.00 0.48 0.48 87 995.3
20210301211533 39 337 12.2 34.8 0.00 0.48 0.48 88 995.3
20210301210536 39 337 13.0 31.3 0.00 0.48 0.48 94 994.6
20210301205540 39 315 9.6 25.2 0.00 0.48 0.48 100 994.4
20210301204537 38 337 8.7 25.2 0.00 0.48 0.48 100 994.4
20210301203524 38 315 8.7 22.6 0.00 0.48 0.48 100 994.5
20210301202554 38 315 8.7 26.1 0.00 0.48 0.48 100 994.4
20210301201526 38 337 8.7 23.5 0.00 0.48 0.48 100 994.4
20210301200600 38 337 8.7 18.2 0.00 0.48 0.48 100 993.8
20210301195529 39 337 6.1 22.6 0.00 0.48 0.48 100 993.8
20210301194535 39 315 4.3 13.0 0.00 0.48 0.48 100 993.8
20210301193551 39 0 3.5 9.6 0.00 0.48 0.48 100 993.9
20210301192558 39 0.0 2.6 0.00 0.48 0.48 100 994.4
20210301191522 39 0.0 2.6 0.00 0.48 0.48 100 994.4
20210301190522 39 0.0 1.7 0.00 0.48 0.48 100 994.8
20210301185521 39 0.0 0.0 0.00 0.48 0.48 100 994.9
20210301184524 39 0.0 0.0 0.00 0.48 0.48 100 994.9
20210301183717 39 0.0 3.5 0.00 0.48 0.48 100 995.4
20210301182630 39 0.0 1.7 0.00 0.48 0.48 100 995.2
20210301181520 38 0 0.9 4.3 0.00 0.48 0.48 100 995.2
20210301180530 38 0.0 2.6 0.00 0.48 0.48 100 995.4
20210301175523 38 0.0 3.5 0.01 0.48 0.48 100 995.8
20210301174526 38 0.0 3.5 0.01 0.48 0.48 100 995.8
20210301173525 38 0 0.9 6.1 0.01 0.48 0.48 100 996.2
20210301172538 38 0 0.9 8.7 0.01 0.48 0.48 100 996.4
20210301171527 38 0 1.7 6.1 0.01 0.48 0.48 100 996.4
20210301170524 37 22 5.2 15.6 0.01 0.48 0.48 100 996.9
20210301165531 37 22 3.5 15.6 0.00 0.47 0.47 100 997.3
20210301164522 37 0 3.5 13.0 0.00 0.47 0.47 100 997.3
20210301163539 37 337 3.5 9.6 0.00 0.47 0.47 100 997.5
20210301162645 37 22 7.0 16.5 0.00 0.47 0.47 100 997.4
20210301161524 37 337 6.1 14.8 0.00 0.47 0.47 100 997.4
20210301160547 37 0 6.1 13.0 0.00 0.47 0.47 100 997.5
20210301155520 37 337 3.5 12.2 0.00 0.47 0.47 100 997.6
20210301154534 37 0 3.5 11.3 0.00 0.47 0.47 100 997.6
20210301153545 37 315 3.5 14.8 0.00 0.47 0.47 100 998.0
20210301152823 37 0 2.6 11.3 0.00 0.47 0.47 100 998.2
20210301151529 37 337 1.7 6.1 0.00 0.47 0.47 100 998.2
20210301150522 37 0 1.7 9.6 0.00 0.47 0.47 100 998.7
20210301145521 37 22 1.7 7.8 0.00 0.47 0.47 100 998.6
20210301144523 37 0.0 2.6 0.00 0.47 0.47 100 998.6
20210301143521 36 45 0.9 3.5 0.00 0.47 0.47 100 998.9
20210301142741 36 45 2.6 7.8 0.01 0.47 0.47 100 999.6
20210301141526 36 0.0 3.5 0.01 0.47 0.47 100 999.6
20210301140540 36 45 0.9 5.2 0.01 0.47 0.47 100 999.8
20210301135556 37 45 1.7 7.8 0.01 0.47 0.47 100 999.7
20210301134540 36 45 0.9 5.2 0.02 0.47 0.47 100 999.7
20210301133525 36 45 0.9 4.3 0.02 0.48 0.47 100 1000.1
20210301132531 36 45 0.9 5.2 0.01 0.47 0.46 100 1000.6
20210301131659 36 45 0.9 5.2 0.02 0.47 0.46 100 1000.6
20210301130525 36 45 2.6 9.6 0.02 0.47 0.46 100 1001.1
20210301125526 36 0 2.6 7.8 0.02 0.47 0.46 100 1001.5
20210301124527 36 0 2.6 9.6 0.02 0.46 0.45 100 1001.5
20210301123521 36 0 1.7 9.6 0.03 0.46 0.45 100 1001.8
20210301122648 36 0 1.7 5.2 0.05 0.46 0.45 100 1002.0
20210301121543 36 0 3.5 6.1 0.05 0.45 0.44 100 1002.0
20210301120542 36 0 0.9 5.2 0.06 0.45 0.44 100 1001.7
20210301115535 36 0 0.9 5.2 0.07 0.45 0.44 100 1002.3
20210301114525 36 0.0 3.5 0.08 0.44 0.43 100 1002.3
20210301113531 36 0 1.7 5.2 0.09 0.43 0.42 100 1002.5
20210301112749 36 0 0.9 3.5 0.10 0.41 0.40 100 1003.6
20210301111535 36 0.0 3.5 0.11 0.40 0.39 100 1003.6
20210301110536 36 157 1.7 3.5 0.12 0.39 0.38 100 1003.8
20210301105523 36 0 0.9 5.2 0.12 0.38 0.37 100 1004.3
20210301104527 36 0 0.9 5.2 0.13 0.36 0.35 100 1004.3
20210301103523 36 157 1.7 4.3 0.12 0.34 0.33 100 1004.7
20210301102627 36 157 0.9 3.5 0.11 0.31 0.30 100 1005.4
20210301101544 36 157 0.9 5.2 0.10 0.28 0.27 100 1005.4
20210301100528 36 0 0.9 3.5 0.10 0.26 0.25 100 1005.8
20210301095516 36 0 2.6 7.8 0.10 0.25 0.24 100 1006.0
20210301094522 36 157 1.7 4.3 0.09 0.23 0.22 100 1006.0
20210301093526 36 157 4.3 12.2 0.09 0.22 0.21 100 1006.2
20210301092702 36 180 5.2 11.3 0.08 0.20 0.19 100 1007.0
20210301091544 36 180 3.5 13.0 0.07 0.18 0.17 100 1007.0
20210301090522 36 180 2.6 7.8 0.05 0.16 0.15 100 1007.5
20210301085521 36 180 5.2 11.3 0.05 0.15 0.14 100 1007.7
20210301084521 36 157 6.1 16.5 0.05 0.13 0.13 100 1007.6
20210301083526 36 180 4.3 16.5 0.04 0.12 0.12 100 1008.3
20210301082658 36 180 6.1 15.6 0.04 0.11 0.11 100 1008.6
20210301081527 36 157 6.1 12.2 0.03 0.10 0.10 100 1008.6
20210301080522 36 180 7.8 16.5 0.04 0.10 0.10 100 1009.3
20210301075520 36 157 7.0 16.5 0.03 0.10 0.09 100 1009.6
20210301074524 36 157 9.6 18.2 0.03 0.09 0.08 100 1009.6
20210301073524 36 157 7.8 17.4 0.03 0.09 0.08 100 1010.4
20210301072608 36 180 10.4 21.7 0.03 0.08 0.07 100 1011.5
20210301071530 36 180 5.2 14.8 0.04 0.08 0.07 100 1011.4
20210301070524 36 157 6.1 13.9 0.03 0.07 0.06 100 1012.1
20210301065534 36 202 7.0 15.6 0.04 0.07 0.06 100 1012.0
20210301064534 35 157 4.3 13.0 0.04 0.06 0.05 100 1012.0
20210301063523 36 157 6.1 14.8 0.04 0.06 0.05 100 1012.2
20210301062602 35 157 6.1 11.3 0.04 0.05 0.04 99 1012.9
20210301061526 35 202 6.1 15.6 0.03 0.04 0.03 99 1013.0
20210301060523 35 180 6.1 13.0 0.03 0.04 0.03 99 1013.3
20210301055532 35 202 8.7 15.6 0.02 0.03 0.02 98 1013.7
20210301054537 35 202 6.1 13.0 0.01 0.02 0.01 98 1013.7
20210301053524 35 180 8.7 14.8 0.01 0.02 0.01 97 1013.8
20210301052636 35 180 7.0 17.4 0.00 0.01 0.00 97 1014.0
20210301051530 35 180 4.3 11.3 0.00 0.01 0.00 96 1014.0
20210301050539 35 202 5.2 10.4 0.00 0.01 0.00 95 1014.8
20210301045520 35 202 5.2 13.9 0.00 0.01 0.01 94 1014.8
20210301044525 35 202 4.3 13.0 0.00 0.01 0.01 93 1014.8
20210301043523 36 202 6.1 13.9 0.00 0.01 0.01 91 1014.9
20210301042556 36 180 4.3 13.0 0.00 0.01 0.01 90 1015.3
20210301041523 36 202 6.1 14.8 0.00 0.01 0.01 88 1015.3
20210301040535 36 180 7.0 14.8 0.00 0.01 0.01 88 1015.4
20210301035518 36 180 6.1 14.8 0.00 0.01 0.01 87 1015.9
20210301034520 36 202 7.0 18.2 0.00 0.01 0.01 86 1015.9
20210301033533 36 202 5.2 12.2 0.00 0.01 0.01 85 1016.4
20210301032615 36 180 6.1 13.0 0.00 0.01 0.01 85 1016.9
20210301031517 36 202 4.3 13.0 0.00 0.01 0.01 84 1016.9
20210301030529 36 180 7.0 17.4 0.00 0.01 0.01 84 1017.0
20210301025524 36 180 7.0 12.2 0.00 0.01 0.01 83 1017.0
20210301024522 36 180 4.3 12.2 0.00 0.01 0.01 82 1017.0
20210301023520 36 202 6.1 13.0 0.00 0.01 0.01 82 1017.9
20210301022713 36 180 4.3 11.3 0.00 0.01 0.01 81 1018.0
20210301021544 36 180 7.0 13.0 0.00 0.01 0.01 81 1018.0
20210301020523 36 157 6.1 11.3 0.00 0.01 0.01 80 1018.4
20210301015522 36 180 7.0 15.6 0.00 0.01 0.01 80 1018.8
20210301014520 36 180 6.1 14.8 0.00 0.01 0.01 80 1018.8